Location: Alafon
(8.4500°N, 4.2333°E)
Time: 20:33:00
(UTC+00:00)

Vanguard 2 - Pass Details

Date: 05 August 2021
Orbit: 553 x 2937 km, 32.9° (Epoch: 27 September)

Event Time Altitude Azimuth Distance (km) Brightness Sun altitude
Rises 01:06:13 0° 258° (WSW) 3,898 - -58.2°
Reaches altitude 10° 01:09:53 10° 270° (W) 2,571 - -57.7°
Maximum altitude 01:14:31 25° 325° (NW) 1,414 - -57.0°
Drops below altitude 10° 01:18:06 10° 21° (NNE) 1,938 - -56.4°
Sets 01:20:28 0° 36° (NE) 2,744 - -56.0°
